Retour au catalogue

COSMOS 1375 DEB

ActifLEO
NORAD 18560·DEBRIS·🇷🇺 Russia

Lancé Jun 6, 1982 depuis Plesetsk Cosmodrome

Loading…

Prochains Passages (prochaines 24 heures)

TLE

FraisSource: Space-Track

Époque: Sep 14, 2026, 14:17 UTC

1 18560U 82055BH  26257.59528045  .00000036  00000-0  13022-3 0  9990
2 18560  65.8297 240.5603 0043499 349.8418 113.2853 13.70080419950645

Suivez COSMOS 1375 DEB en temps réel avec AllMySat

Download on the App Store